Location: Lancaster
(34.6980°N, 118.1360°W)
Time: 08:13:52
(UTC-07:00)

Envisat - Visible Passes

Search period start: 05 October 2022 00:00
Search period end: 15 October 2022 00:00
Orbit: 764 x 765 km, 98.2° (Epoch: 04 October)

Date Brightness Start Highest point End Pass type
(mag) Time Alt. Az. Time Alt. Az. Time Alt. Az.
05 Oct 5.3 04:10:53 10° NE 04:14:38 21° E 04:18:23 10° SE visible
05 Oct 3.5 05:49:03 10° N 05:53:42 38° WNW 05:58:20 10° SW visible
06 Oct 2.9 05:11:47 10° NNE 05:16:53 90° WNW 05:21:57 10° SSW visible
07 Oct 4.3 04:35:10 10° NNE 04:39:52 37° E 04:44:33 10° SSE visible
07 Oct 4.2 06:14:48 10° NNW 06:18:35 22° WNW 06:22:22 10° WSW visible
08 Oct 5.7 03:59:41 10° NE 04:02:41 16° E 04:05:40 10° SE visible
08 Oct 3.2 05:37:01 10° N 05:41:54 49° WNW 05:46:46 10° SSW visible
09 Oct 3.2 04:59:57 10° NNE 05:05:01 70° ESE 05:10:04 10° S visible
10 Oct 4.8 04:23:35 10° NE 04:27:57 28° E 04:32:17 10° SSE visible
10 Oct 3.9 06:02:34 10° NNW 06:06:49 28° WNW 06:11:04 10° SW visible
11 Oct 5.9 03:49:01 10° ENE 03:50:42 12° E 03:52:23 10° ESE visible
11 Oct 2.9 05:25:03 10° N 05:30:04 65° WNW 05:35:05 10° SSW visible
12 Oct 3.7 04:48:10 10° NNE 04:53:08 52° E 04:58:04 10° S visible
12 Oct 4.5 06:28:41 10° NNW 06:31:39 16° WNW 06:34:37 10° WSW visible
13 Oct 5.2 04:12:07 10° NE 04:16:00 22° E 04:19:52 10° SE visible
13 Oct 3.5 05:50:26 10° N 05:55:02 36° WNW 05:59:37 10° SW visible
14 Oct 2.9 05:13:07 10° N 05:18:13 85° WNW 05:23:18 10° SSW visible
